OBJECT C, 69322

Orbit data source: Space-Track

You're viewing an Uncataloged Satellite

Recently launched and/or uncataloged satellites may have evolving metadata. Metadata may include but not limited to: Owner, Maufacturer, Bus, Motor, and Mission.

OBJECT C, 69322 is a satellite owned by Zhongguo Xingwang (CN) in LEO that was launched on Sat, 30 May 2026 UTC via a CHANG ZHENG 2D launch vehicle from the Xichang Space Center, China (XSC). Unknown objects in Earth's orbit typically refer to objects detected orbiting the Earth but have not yet been identified or cataloged. These objects could be anything from previously untracked satellites, spent rocket stages, debris from satellite collisions, or even natural meteoroids temporarily captured by Earth's gravity.

Loading next visibility...
Identifier
69322, 2026-120C
Orbit
LEO
Country
Flag of CNCN / PRC
Related business
Manufacturer
Hongqing Keji
Mission
Operational spacecraft
Bus & Motor
Unknown
Mass
~300 kg wet, ~300 kg dry
Launch date (UTC)
2026-05-30 (2 weeks ago)
Launch vehicle
CHANG ZHENG 2D
Launch site
Xichang Space Center, China (XSC)
Object type
Unknown
Shape & HBR
Unknown
Radar Cross Section
RCS unknown

Expand to show TLE details & history
Last TLE update: 1 week ago

TLE from 1 week ago
0 OBJECT C
1 69322U 26120C   26152.22618734  .00020492  00000-0  52449-3 0  9996
2 69322  54.9979  99.6107 0009361 290.4255  69.5768 15.39404179   234
Epoch: 2026-06-01T05:25Z
TLE epoch observation values (Epoch: 2026-06-01T05:25:42.586Z)
Latitude
0.00001°
Longitude
128.46671°
Altitude
446.745 km
Speed
7.646 km/s
True Right ascension
06h 38m 26s
True Declination
0° 00' 00"
Sunlit
Object was in daylight at epoch
Visualization orbit readout
Latitude
Unknown
Longitude
Unknown
Altitude
Unknown
Speed
Unknown
Apparent Right ascension
Unknown
Apparent Declination
Unknown
Sunlit
N/A
Visualization observer readout
Local Sidereal Time
13:28:14
Azimuth
Unknown
Elevation
Unknown
Doppler factor
Unknown
Orbital elements
Apogee altitude
454.222 km
Perigee altitude
441.443 km
Semi-major axis
6,825.97 km
Eccentricity
0.00094
Inclination
54.9979°
RAAN
99.6107°
Arg. of periapsis
290.4255°
True anomaly
69.67737°
Mean anomaly
69.5768°
Eccentric anomaly
69.62708°
Mean motion
3.84855 °/min
Orbital period
93.54 mins
BSTAR
0.00052449
Loading maneuver chart data...
Computing Atmospheric mass density...
Loading historical data...
Loading historical data...
Loading historical data...
Loading historical data...
Loading historical data...
Loading historical data...
Loading historical data...
Other satellites on launch #120 in the year 2026 (2026-05-30 UTC)

Documentation

Showing up to 5 results
|